Location: Epalinges
(46.5518°N, 6.6683°E)
Time: 18:08:38
(UTC+00:00)

Cosmos 1833 Rocket - Pass Details

Date: 20 June 2021
Orbit: 832 x 840 km, 71.0° (Epoch: 30 July)

Event Time Altitude Azimuth Distance (km) Brightness Sun altitude
Exits shadow 02:40:01 - 182° (S) 3,192 5.2 -8.5°
Reaches altitude 10° 02:42:04 10° 176° (S) 2,446 4.7 -8.2°
Maximum altitude 02:47:17 42° 107° (ESE) 1,191 3.8 -7.6°
Drops below altitude 10° 02:52:34 10° 39° (NE) 2,465 6.9 -7.0°
Sets 02:55:07 0° 33° (NNE) 3,404 7.9 -6.7°
